Stations météo

Publicité
Chartres, France (7143): Température de l'air & dewpoint: 21.11.2020 03:00:00 - 27.11.2020 03:00:00 (CET)Chartres, France (7143): Température de l'air 5cm: 21.11.2020 03:00:00 - 27.11.2020 03:00:00 (CET)Chartres, France (7143): Température de l'air -20cm & Température de l'air -100cm: 21.11.2020 03:00:00 - 27.11.2020 03:00:00 (CET)Chartres, France (7143): Vitesse du vent & gusts: 21.11.2020 03:00:00 - 27.11.2020 03:00:00 (CET)Chartres, France (7143): Direction du vent: 21.11.2020 03:00:00 - 27.11.2020 03:00:00 (CET)Chartres, France (7143): reduced air pressure: 21.11.2020 03:00:00 - 27.11.2020 03:00:00 (CET)Chartres, France (7143): visibility: 21.11.2020 03:00:00 - 27.11.2020 03:00:00 (CET)Chartres, France (7143): Ensoleillement: 21.11.2020 03:00:00 - 27.11.2020 03:00:00 (CET)Chartres, France (7143): Quantités de précipitations: 21.11.2020 03:00:00 - 27.11.2020 03:00:00 (CET)
Date & Time tt [°C] td [°C] tt 5cm [°C] tt -20cm [°C] tt -100cm [°C] ff [km/h] ff [knt] fx [km/h] fx [knt] dd ppp [hPa] vv [km] sd [min] rr [mm]
27.11.2020 03:00:00 6,4 5,7 4,5 9,0 12,3 5 3 9 5 NE 1018,3 10 0 0,0
27.11.2020 02:00:00 6,1 5,1 4,8 9,0 12,3 0 0 10 5 N 1018,5 8 0 0,0
27.11.2020 01:00:00 7,0 5,9 6,6 9,0 12,3 7 4 10 6 NNE 1018,6 10 0 0,0
27.11.2020 00:00:00 7,0 5,9 6,7 9,0 12,3 5 3 8 4 NNE 1019,0 10 0 0,0
26.11.2020 23:00:00 7,1 6,0 6,6 9,0 12,3 6 3 8 4 NNE 1019,3 10 0 0,0
26.11.2020 22:00:00 7,1 6,2 6,4 9,0 12,3 3 2 6 3 N 1019,6 8 0 0,0
26.11.2020 21:00:00 7,1 6,0 6,1 9,0 12,3 2 1 5 3 N 1019,6 9 0 0,0
26.11.2020 20:00:00 7,0 5,9 4,3 8,9 12,3 0 0 7 4 N 1019,6 9 0 0,0
26.11.2020 19:00:00 6,4 5,2 3,1 9,0 12,4 4 2 6 3 NNE 1019,2 9 0 0,0
26.11.2020 18:00:00 8,2 6,0 4,2 8,9 12,3 5 3 7 4 E 1019,0 18 0 0,0
26.11.2020 17:00:00 9,5 6,4 7,6 8,8 12,3 4 2 7 4 NE 1018,8 20 16 0,0
26.11.2020 16:00:00 11,6 7,3 10,7 8,7 12,3 5 3 9 5 ENE 1018,5 20 49 0,0
26.11.2020 15:00:00 11,7 7,4 16,2 8,6 12,3 4 2 9 5 ESE 1018,6 19 57 0,0
26.11.2020 14:00:00 11,1 7,4 14,2 8,5 12,3 4 2 9 5 ESE 1019,1 18 60 0,0
26.11.2020 13:00:00 8,6 6,2 12,5 8,5 12,4 4 2 6 4 SE 1019,7 19 47 0,0
26.11.2020 12:00:00 6,2 5,9 7,7 8,5 12,4 0 0 8 5 N 1020,5 9 60 0,0
26.11.2020 11:00:00 3,7 3,7 3,0 8,6 12,4 0 0 8 4 N 1020,7 0,3 18 0,0
26.11.2020 10:00:00 1,9 1,9 0,2 8,6 12,4 3 1 13 7 N 1021,0 0,4 3 0,0
26.11.2020 09:00:00 0,3 0,2 -1,0 8,7 12,4 4 2 6 3 N 1020,7 0,2 0 0,0
26.11.2020 08:00:00 0,0 -0,1 -1,2 8,8 12,4 3 2 5 3 NW 1020,4 0,2 0 0,0
26.11.2020 07:00:00 -0,1 -0,2 -1,6 8,9 12,4 3 1 4 2 N 1020,0 0,2 0 0,0
26.11.2020 06:00:00 0,2 -0,1 -1,5 9,0 12,4 3 1 4 2 N 1020,0 0,4 0 0,0
26.11.2020 05:00:00 0,5 0,2 -1,3 9,0 12,4 2 1 5 3 E 1019,9 0,2 0 0,0
26.11.2020 04:00:00 1,3 1,0 -1,1 9,1 12,4 4 2 5 3 NNE 1019,9 1,1 0 0,2
26.11.2020 03:00:00 1,7 1,4 -1,3 9,2 12,4 4 2 5 3 ESE 1019,6 2,6 0 0,0
26.11.2020 02:00:00 2,3 1,7 -0,5 9,3 12,4 3 1 7 4 WNW 1019,3 3,2 0 0,0
26.11.2020 01:00:00 4,1 4,0 -0,7 9,4 12,4 5 3 8 4 ESE 1019,1 1,2 0 0,0
26.11.2020 00:00:00 2,7 2,3 -0,3 9,5 12,4 0 0 5 3 N 1019,2 5 0 0,0
25.11.2020 23:00:00 2,8 2,1 0,1 9,5 12,4 5 3 6 3 ESE 1018,9 4,7 0 0,0
25.11.2020 22:00:00 4,1 3,4 0,8 9,6 12,4 0 0 8 4 N 1018,9 3,2 0 0,0
25.11.2020 21:00:00 4,9 4,3 0,8 9,6 12,4 0 0 5 3 N 1018,4 6 0 0,0
25.11.2020 20:00:00 5,6 4,7 1,9 9,6 12,4 3 1 6 4 ESE 1018,0 9 0 0,0
25.11.2020 19:00:00 6,9 5,5 2,8 9,7 12,4 2 1 8 4 SE 1017,7 15 0 0,0
25.11.2020 18:00:00 8,6 6,7 5,5 9,6 12,4 8 4 10 5 ESE 1016,9 17 0 0,0
25.11.2020 17:00:00 10,8 7,1 8,9 9,5 12,5 5 3 11 6 SE 1016,5 20 18 0,0
25.11.2020 16:00:00 12,6 8,1 11,9 9,5 12,4 7 4 14 7 SE 1015,8 20 48 0,0
25.11.2020 15:00:00 12,6 7,9 15,1 9,4 12,5 7 4 16 9 SE 1015,8 16 58 0,0
25.11.2020 14:00:00 11,8 7,3 11,5 9,3 12,5 8 4 13 7 SSE 1016,1 14 38 0,0
25.11.2020 13:00:00 9,8 6,7 10,5 9,2 12,5 7 4 13 7 S 1016,3 12 1 0,0
25.11.2020 12:00:00 9,5 6,4 9,2 9,2 12,5 6 3 12 7 S 1016,7 11 0 0,0
25.11.2020 11:00:00 8,5 6,1 8,1 9,2 12,5 8 4 16 9 S 1016,7 6 0 0,0
25.11.2020 10:00:00 7,8 5,8 7,0 9,1 12,5 8 4 17 9 S 1016,5 5 2 0,0
25.11.2020 09:00:00 7,2 5,5 6,0 9,2 12,5 9 5 16 9 S 1016,2 5 0 0,0
25.11.2020 08:00:00 7,1 5,4 6,6 9,2 12,5 10 5 18 10 S 1015,7 7 0 0,0
25.11.2020 07:00:00 7,1 5,7 5,5 9,2 12,5 9 5 21 11 SSW 1015,4 4,5 0 0,0
25.11.2020 06:00:00 6,9 4,7 6,4 9,2 12,5 7 4 18 10 S 1015,1 11 0 0,0
25.11.2020 05:00:00 6,7 4,5 5,9 9,3 12,5 10 5 20 11 SSW 1014,8 4,8 0 0,0
25.11.2020 04:00:00 6,2 4,2 3,9 9,4 12,5 11 6 20 11 S 1014,7 4,4 0 0,0
25.11.2020 03:00:00 4,5 3,0 3,2 9,4 12,5 9 5 16 9 S 1015,2 5 0 0,0
25.11.2020 02:00:00 4,4 2,7 3,1 9,4 12,5 8 4 16 9 S 1015,4 6 0 0,0
25.11.2020 01:00:00 5,0 2,7 3,8 9,5 12,5 8 5 15 8 S 1015,6 10 0 0,0
25.11.2020 00:00:00 5,0 2,9 4,0 9,6 12,5 8 4 14 7 SSE 1015,9 11 0 0,0
24.11.2020 23:00:00 5,2 3,0 4,0 9,6 12,5 8 4 11 6 SSE 1016,2 13 0 0,0
24.11.2020 22:00:00 5,1 3,6 3,8 9,6 12,5 5 3 9 5 SSE 1016,7 14 0 0,0
24.11.2020 21:00:00 6,1 3,9 4,6 9,6 12,5 4 2 14 8 SSE 1017,2 14 0 0,0
24.11.2020 20:00:00 6,0 4,5 4,8 9,7 12,6 8 4 13 7 ESE 1017,0 11 0 0,0
24.11.2020 19:00:00 6,5 4,5 4,9 9,7 12,6 7 4 13 7 SE 1017,4 13 0 0,0
24.11.2020 18:00:00 7,2 5,3 6,0 9,6 12,6 8 5 14 7 SE 1017,5 15 0 0,0
24.11.2020 17:00:00 8,2 5,8 7,4 9,6 12,5 8 4 16 9 SE 1018,0 19 0 0,0
24.11.2020 16:00:00 9,2 5,7 9,5 9,5 12,5 9 5 15 8 SE 1018,4 20 14 0,0
24.11.2020 15:00:00 10,3 5,7 12,0 9,4 12,6 8 4 14 8 SE 1019,2 18 54 0,0
24.11.2020 14:00:00 9,7 4,5 11,7 9,4 12,6 7 4 16 8 SSE 1020,0 17 45 0,0
24.11.2020 13:00:00 8,9 4,5 9,8 9,3 12,6 8 5 18 10 S 1020,9 17 25 0,0
24.11.2020 12:00:00 7,4 4,5 9,9 9,4 12,6 9 5 17 9 SSE 1022,0 17 44 0,0
24.11.2020 11:00:00 6,0 5,6 6,1 9,3 12,6 6 3 11 6 ESE 1023,1 11 58 0,0
24.11.2020 10:00:00 4,0 4,0 2,8 9,4 12,6 3 2 5 3 SSE 1023,6 0,2 19 0,0
24.11.2020 09:00:00 2,3 2,3 2,0 9,4 12,6 0 0 7 4 N 1024,1 0,1 0 0,0
24.11.2020 08:00:00 1,9 1,9 1,8 9,5 12,6 3 2 6 4 ESE 1024,4 0,1 0 0,0
24.11.2020 07:00:00 2,0 1,9 1,9 9,6 12,6 0 0 5 3 N 1024,6 0,1 0 0,0
24.11.2020 06:00:00 2,4 2,3 2,2 9,6 12,6 0 0 5 3 N 1025,2 0,1 0 0,0
24.11.2020 05:00:00 2,3 2,2 1,2 9,7 12,6 2 1 6 3 E 1025,6 0,1 0 0,2
24.11.2020 04:00:00 1,4 1,3 -1,0 9,8 12,6 5 3 9 5 ESE 1026,3 0,1 0 0,0
24.11.2020 03:00:00 1,1 0,5 -1,0 9,9 12,6 0 0 2 1 N 1026,7 0,3 0 0,0
24.11.2020 02:00:00 2,3 1,7 -0,1 9,9 12,6 0 0 5 3 N 1027,2 0,1 0 0,0
24.11.2020 01:00:00 3,3 2,7 1,5 10,0 12,6 5 3 7 4 SW 1027,8 - 0 0,0
24.11.2020 00:00:00 4,8 4,4 3,4 10,0 12,6 5 3 11 6 SSW 1028,1 0,1 0 0,0
23.11.2020 23:00:00 5,6 4,7 3,6 10,0 12,6 4 2 8 4 S 1028,5 2,9 0 0,0
23.11.2020 22:00:00 7,1 6,0 5,9 10,0 12,7 4 2 8 4 SW 1028,7 7 0 0,0
23.11.2020 21:00:00 8,0 6,6 7,3 10,0 12,7 4 2 10 5 SSW 1028,9 2,4 0 0,0
23.11.2020 20:00:00 8,6 6,9 7,0 10,0 12,7 4 2 6 3 SW 1028,9 5 0 0,0
23.11.2020 19:00:00 9,0 6,6 7,3 10,0 12,7 3 2 6 3 WSW 1028,9 17 0 0,0
23.11.2020 18:00:00 8,7 6,5 6,0 10,0 12,7 3 2 4 2 WSW 1028,8 19 0 0,0
23.11.2020 17:00:00 10,1 5,9 7,0 9,9 12,7 0 0 7 4 N 1028,5 20 0 0,0
23.11.2020 16:00:00 12,4 7,3 11,9 9,8 12,7 5 3 10 6 WNW 1028,4 20 24 0,0
23.11.2020 15:00:00 12,2 8,1 13,2 9,6 12,7 4 2 12 7 WNW 1028,6 20 38 0,0
23.11.2020 14:00:00 13,0 8,1 14,7 9,6 12,7 6 3 14 7 WSW 1028,9 20 56 0,0
23.11.2020 13:00:00 12,1 7,6 11,8 9,5 12,7 7 4 13 7 WSW 1029,4 15 32 0,0
23.11.2020 12:00:00 10,5 7,4 11,0 9,4 12,7 7 4 12 7 SSW 1030,1 10 0 0,0
23.11.2020 11:00:00 9,6 7,2 9,5 9,4 12,8 7 4 14 7 SSW 1030,1 11 0 0,0
23.11.2020 10:00:00 8,7 7,1 7,9 9,4 12,7 3 2 7 4 S 1030,0 17 0 0,0
23.11.2020 09:00:00 8,0 6,8 7,7 9,4 12,8 2 1 6 3 SSE 1029,6 19 0 0,0
23.11.2020 08:00:00 8,1 6,6 7,5 9,3 12,8 0 0 9 5 N 1029,4 20 0 0,0
23.11.2020 07:00:00 7,7 6,6 7,2 9,3 12,8 5 3 8 4 SW 1028,9 15 0 0,0
23.11.2020 06:00:00 7,6 6,5 7,2 9,3 12,8 4 2 4 2 SW 1028,9 12 0 0,0
23.11.2020 05:00:00 7,5 6,1 7,0 9,2 12,8 2 1 9 5 WSW 1028,6 14 0 0,0
23.11.2020 04:00:00 7,6 5,9 7,0 9,3 12,8 4 2 9 5 WSW 1028,8 16 0 0,0
23.11.2020 03:00:00 7,2 5,7 6,7 9,3 12,8 4 2 8 4 SW 1029,1 14 0 0,0
23.11.2020 02:00:00 6,8 5,4 6,3 9,3 12,8 2 1 9 5 WSW 1029,2 14 0 0,0
23.11.2020 01:00:00 6,3 5,3 5,9 9,3 12,8 3 2 7 4 SW 1029,3 11 0 0,0
23.11.2020 00:00:00 6,0 5,0 5,2 9,3 12,8 3 1 4 2 S 1029,3 10 0 0,0
22.11.2020 23:00:00 5,1 4,5 2,4 9,3 12,8 2 1 4 2 SSW 1029,4 10 0 0,0
22.11.2020 22:00:00 4,7 3,8 2,6 9,3 12,8 2 1 4 2 NW 1029,3 11 0 0,0
22.11.2020 21:00:00 5,4 3,7 3,3 9,4 12,8 0 0 7 4 N 1029,1 15 0 0,0
22.11.2020 20:00:00 6,7 4,5 4,8 9,3 12,9 4 2 8 4 W 1029,1 20 0 0,0
22.11.2020 19:00:00 6,8 4,1 5,1 9,3 12,9 0 0 7 4 N 1028,9 20 0 0,0
22.11.2020 18:00:00 7,6 4,5 6,3 9,2 12,9 4 2 9 5 WSW 1028,7 18 0 0,0
22.11.2020 17:00:00 8,6 5,7 7,7 9,1 12,9 3 2 6 3 SW 1028,4 20 9 0,0
22.11.2020 16:00:00 9,9 5,9 9,9 9,0 12,9 3 2 6 4 WSW 1028,3 20 7 0,0
22.11.2020 15:00:00 9,6 5,2 11,0 8,9 12,9 4 2 7 4 WNW 1028,5 20 20 0,0
22.11.2020 14:00:00 9,4 4,6 10,2 8,9 12,9 3 2 11 6 WSW 1028,7 20 15 0,0
22.11.2020 13:00:00 8,4 4,0 7,9 8,8 12,9 7 4 13 7 SSW 1029,2 13 7 0,0
22.11.2020 12:00:00 6,4 4,1 7,3 8,8 12,9 6 3 9 5 S 1030,2 11 0 0,0
22.11.2020 11:00:00 5,7 3,9 5,0 8,9 12,9 3 2 10 6 SSW 1030,5 14 4 0,0
22.11.2020 10:00:00 3,7 3,0 1,8 8,9 12,9 6 3 11 6 WSW 1030,7 14 0 0,0
22.11.2020 09:00:00 1,7 1,4 0,3 8,9 12,9 4 2 6 3 SSW 1030,7 6 7 0,0
22.11.2020 08:00:00 1,4 1,0 0,2 9,0 13,0 4 2 8 5 S 1030,5 4,7 0 0,0
22.11.2020 07:00:00 1,2 0,9 -0,6 9,1 12,9 3 2 6 3 S 1030,4 5 0 0,0
22.11.2020 06:00:00 0,5 -0,1 -1,1 9,2 13,0 4 2 5 3 S 1030,6 4,7 0 0,0
22.11.2020 05:00:00 0,7 0,1 -0,9 9,2 13,0 3 2 5 3 SSW 1030,5 4,8 0 0,0
22.11.2020 04:00:00 1,2 0,8 -0,4 9,3 13,0 4 2 6 4 SW 1030,5 6 0 0,0
22.11.2020 03:00:00 1,2 0,6 -0,9 9,4 13,0 4 2 5 3 S 1030,6 3,3 0 0,0
22.11.2020 02:00:00 1,7 1,0 -0,2 9,4 13,0 5 3 6 4 SSW 1030,8 4,7 0 0,0
22.11.2020 01:00:00 2,5 1,9 0,1 9,5 13,0 5 3 7 4 SW 1031,0 8 0 0,0
22.11.2020 00:00:00 2,8 2,1 0,3 9,6 13,0 3 1 6 4 SW 1031,3 10 0 0,0
21.11.2020 23:00:00 2,9 2,0 1,0 9,6 13,0 4 2 5 3 WSW 1031,5 12 0 0,0
21.11.2020 22:00:00 3,1 2,2 1,5 9,6 13,0 2 1 4 2 SW 1031,9 10 0 0,0
21.11.2020 21:00:00 3,6 2,4 1,7 9,7 13,0 0 0 7 4 N 1032,1 14 0 0,0
21.11.2020 20:00:00 4,6 3,4 1,5 9,7 13,0 6 3 8 4 S 1032,3 12 0 0,0
21.11.2020 19:00:00 4,9 3,2 1,8 9,7 13,0 3 2 9 5 SSW 1032,6 19 0 0,0
21.11.2020 18:00:00 6,2 3,7 4,3 9,6 13,0 5 3 14 8 SSW 1032,4 20 0 0,0
21.11.2020 17:00:00 8,2 4,4 7,0 9,6 13,1 8 5 16 9 SSW 1032,0 10 30 0,0
21.11.2020 16:00:00 10,3 5,3 9,9 9,5 13,0 5 3 14 8 SW 1031,9 20 45 0,0
21.11.2020 15:00:00 10,7 5,2 13,0 9,4 13,1 8 4 17 9 SW 1032,2 20 60 0,0
21.11.2020 14:00:00 10,4 5,0 13,0 9,3 13,1 8 4 18 10 SW 1032,6 13 60 0,0
21.11.2020 13:00:00 9,8 5,4 13,0 9,3 13,1 10 6 17 9 SSW 1033,3 8 60 0,0
21.11.2020 12:00:00 8,7 4,9 11,3 9,3 13,1 8 5 17 9 SW 1033,9 14 60 0,0
21.11.2020 11:00:00 7,3 4,1 5,2 9,4 13,1 10 5 17 9 SW 1034,6 8 60 0,0
21.11.2020 10:00:00 5,3 3,9 2,7 9,4 13,1 7 4 14 8 SW 1034,9 6 60 0,0
21.11.2020 09:00:00 2,9 2,6 1,4 9,5 13,1 6 3 13 7 SSW 1034,4 1,3 22 0,0
21.11.2020 08:00:00 2,3 1,9 1,4 9,5 13,1 6 3 13 7 SSW 1034,6 1,8 0 0,0
21.11.2020 07:00:00 2,8 2,4 2,1 9,6 13,1 5 3 9 5 S 1034,9 2,5 0 0,0
21.11.2020 06:00:00 2,5 2,1 0,9 9,6 13,2 6 3 10 5 SSW 1035,0 2,8 0 0,0
21.11.2020 05:00:00 2,7 2,3 1,1 9,7 13,2 6 3 9 5 S 1035,0 3,5 0 0,0
21.11.2020 04:00:00 2,1 1,5 0,5 9,8 13,2 3 2 8 4 S 1035,2 5 0 0,0
21.11.2020 03:00:00 2,7 2,1 1,6 9,8 13,2 5 3 10 5 SSW 1035,2 4,8 0 0,0

tt = Température de l'air
td = dewpoint
tt 5cm = Température de l'air 5cm
tt -20cm = Température de l'air -20cm
tt -100cm = Température de l'air -100cm
ff = Vitesse du vent
fx = gusts
dd = Direction du vent
ppp = reduced air pressure
vv = visibility
sd = Ensoleillement
rr = Quantités de précipitations

stations d'obs. à proximité